| time (UTC) | temp C | wind direction | speed KPH | gust KPH | rain 1hr cm | rain 24hr cm | rain mn cm | humidity % | barometer mb |
| 20260508224917 | 10 | 0.0 | 1.6 | 0.00 | 0.00 | 0.00 | 88 | 1022.2 | |
| 20260508223937 | 10 | 90 | 1.6 | 3.2 | 0.00 | 0.00 | 0.00 | 87 | 1022.2 |
| 20260508222917 | 10 | 0.0 | 3.2 | 0.00 | 0.00 | 0.00 | 87 | 1022.2 | |
| 20260508221937 | 10 | 68 | 3.2 | 3.2 | 0.00 | 0.00 | 0.00 | 87 | 1022.2 |
| 20260508220937 | 10 | 68 | 1.6 | 3.2 | 0.00 | 0.00 | 0.00 | 87 | 1022.2 |
| 20260508215916 | 10 | 68 | 1.6 | 4.8 | 0.00 | 0.00 | 0.00 | 87 | 1022.2 |
| 20260508214936 | 10 | 68 | 3.2 | 4.8 | 0.00 | 0.00 | 0.00 | 87 | 1022.2 |
| 20260508213916 | 10 | 68 | 3.2 | 4.8 | 0.00 | 0.00 | 0.00 | 86 | 1022.2 |
| 20260508212916 | 10 | 0.0 | 3.2 | 0.00 | 0.00 | 0.00 | 86 | 1022.2 | |
| 20260508211936 | 11 | 90 | 1.6 | 1.6 | 0.00 | 0.00 | 0.00 | 86 | 1022.3 |
| 20260508210916 | 11 | 135 | 1.6 | 1.6 | 0.00 | 0.00 | 0.00 | 85 | 1022.1 |
| 20260508205916 | 11 | 0.0 | 0.0 | 0.00 | 0.00 | 0.00 | 85 | 1022.1 | |
| 20260508204916 | 11 | 0.0 | 0.0 | 0.00 | 0.00 | 0.00 | 85 | 1022.1 | |
| 20260508203916 | 11 | 0.0 | 0.0 | 0.00 | 0.00 | 0.00 | 85 | 1022.0 | |
| 20260508202916 | 11 | 0.0 | 0.0 | 0.00 | 0.00 | 0.00 | 85 | 1021.9 | |
| 20260508201916 | 11 | 0.0 | 0.0 | 0.00 | 0.00 | 0.00 | 84 | 1022.0 | |
| 20260508200915 | 11 | 0.0 | 0.0 | 0.00 | 0.00 | 0.00 | 83 | 1022.0 | |
| 20260508195916 | 11 | 0.0 | 1.6 | 0.00 | 0.00 | 0.00 | 82 | 1021.9 | |
| 20260508194916 | 11 | 135 | 1.6 | 3.2 | 0.00 | 0.00 | 0.00 | 82 | 1021.8 |
| 20260508193936 | 11 | 0.0 | 1.6 | 0.00 | 0.00 | 0.00 | 82 | 1021.7 | |
| 20260508192916 | 11 | 0.0 | 1.6 | 0.00 | 0.00 | 0.00 | 81 | 1021.8 | |
| 20260508191916 | 11 | 135 | 1.6 | 3.2 | 0.00 | 0.00 | 0.00 | 81 | 1021.7 |
| 20260508190916 | 12 | 135 | 1.6 | 4.8 | 0.00 | 0.00 | 0.00 | 80 | 1021.5 |
| 20260508185916 | 12 | 135 | 3.2 | 4.8 | 0.00 | 0.00 | 0.00 | 79 | 1021.4 |
| 20260508184915 | 12 | 135 | 3.2 | 6.4 | 0.00 | 0.00 | 0.00 | 79 | 1021.3 |
| 20260508183915 | 12 | 135 | 3.2 | 6.4 | 0.00 | 0.00 | 0.00 | 79 | 1021.2 |
| 20260508182915 | 12 | 158 | 1.6 | 3.2 | 0.00 | 0.00 | 0.00 | 77 | 1021.2 |
| 20260508181915 | 12 | 158 | 1.6 | 4.8 | 0.00 | 0.00 | 0.00 | 76 | 1021.2 |
| 20260508180916 | 12 | 135 | 3.2 | 4.8 | 0.00 | 0.00 | 0.00 | 75 | 1021.1 |
| 20260508175916 | 13 | 135 | 3.2 | 4.8 | 0.00 | 0.00 | 0.00 | 74 | 1021.1 |
| 20260508174915 | 13 | 135 | 1.6 | 4.8 | 0.00 | 0.00 | 0.00 | 73 | 1021.1 |
| 20260508173936 | 13 | 135 | 3.2 | 6.4 | 0.00 | 0.00 | 0.00 | 71 | 1021.1 |
| 20260508172936 | 13 | 135 | 4.8 | 9.7 | 0.00 | 0.00 | 0.00 | 71 | 1021.1 |
| 20260508171916 | 13 | 135 | 4.8 | 8.0 | 0.00 | 0.00 | 0.00 | 71 | 1021.0 |
| 20260508170915 | 13 | 113 | 1.6 | 3.2 | 0.00 | 0.00 | 0.00 | 70 | 1020.9 |
| 20260508165915 | 13 | 135 | 1.6 | 1.6 | 0.00 | 0.00 | 0.00 | 69 | 1020.9 |
| 20260508164916 | 13 | 135 | 4.8 | 6.4 | 0.00 | 0.00 | 0.00 | 68 | 1020.8 |
| 20260508163916 | 13 | 90 | 1.6 | 3.2 | 0.00 | 0.00 | 0.00 | 68 | 1020.8 |
| 20260508162916 | 13 | 90 | 1.6 | 3.2 | 0.00 | 0.00 | 0.00 | 67 | 1020.8 |
| 20260508161916 | 14 | 90 | 1.6 | 3.2 | 0.00 | 0.00 | 0.00 | 67 | 1020.8 |
| 20260508160936 | 14 | 135 | 4.8 | 9.7 | 0.00 | 0.00 | 0.00 | 67 | 1020.5 |
| 20260508155916 | 14 | 203 | 1.6 | 1.6 | 0.00 | 0.00 | 0.00 | 65 | 1020.7 |
| 20260508154936 | 14 | 113 | 1.6 | 4.8 | 0.00 | 0.00 | 0.00 | 65 | 1020.7 |
| 20260508153916 | 14 | 0.0 | 3.2 | 0.00 | 0.00 | 0.00 | 65 | 1020.7 | |
| 20260508152916 | 14 | 158 | 3.2 | 8.0 | 0.00 | 0.00 | 0.00 | 65 | 1020.8 |
| 20260508151916 | 14 | 135 | 4.8 | 8.0 | 0.00 | 0.00 | 0.00 | 65 | 1020.7 |
| 20260508150915 | 14 | 113 | 4.8 | 6.4 | 0.00 | 0.00 | 0.00 | 61 | 1020.7 |
| 20260508145916 | 14 | 135 | 4.8 | 9.7 | 0.00 | 0.00 | 0.00 | 62 | 1020.7 |
| 20260508144915 | 15 | 113 | 8.0 | 14.5 | 0.00 | 0.00 | 0.00 | 62 | 1020.7 |
| 20260508143935 | 14 | 135 | 4.8 | 8.0 | 0.00 | 0.00 | 0.00 | 63 | 1020.7 |
| 20260508142916 | 14 | 135 | 8.0 | 11.3 | 0.00 | 0.00 | 0.00 | 61 | 1020.7 |
| 20260508141915 | 15 | 135 | 9.7 | 14.5 | 0.00 | 0.00 | 0.00 | 62 | 1020.7 |
| 20260508140916 | 15 | 135 | 6.4 | 11.3 | 0.00 | 0.00 | 0.00 | 63 | 1020.7 |
| 20260508135915 | 14 | 113 | 6.4 | 9.7 | 0.00 | 0.00 | 0.00 | 63 | 1020.8 |
| 20260508135016 | 14 | 135 | 3.2 | 6.4 | 0.00 | 0.00 | 0.00 | 63 | 1020.8 |
| 20260508133935 | 14 | 135 | 6.4 | 11.3 | 0.00 | 0.00 | 0.00 | 62 | 1020.9 |
| 20260508132915 | 15 | 158 | 3.2 | 4.8 | 0.00 | 0.00 | 0.00 | 61 | 1020.8 |
| 20260508131915 | 15 | 113 | 6.4 | 12.9 | 0.00 | 0.00 | 0.00 | 62 | 1020.8 |
| 20260508130916 | 15 | 158 | 6.4 | 9.7 | 0.00 | 0.00 | 0.00 | 61 | 1020.9 |
| 20260508125915 | 15 | 113 | 6.4 | 12.9 | 0.00 | 0.00 | 0.00 | 58 | 1021.0 |
| 20260508124915 | 15 | 135 | 4.8 | 8.0 | 0.00 | 0.00 | 0.00 | 60 | 1021.0 |
| 20260508123916 | 16 | 135 | 6.4 | 8.0 | 0.00 | 0.00 | 0.00 | 57 | 1021.0 |
| 20260508122916 | 16 | 135 | 9.7 | 16.1 | 0.00 | 0.00 | 0.00 | 56 | 1021.0 |
| 20260508121915 | 16 | 225 | 4.8 | 14.5 | 0.00 | 0.00 | 0.00 | 58 | 1021.1 |
| 20260508120915 | 16 | 135 | 4.8 | 8.0 | 0.00 | 0.00 | 0.00 | 56 | 1021.1 |
| 20260508115916 | 16 | 225 | 3.2 | 6.4 | 0.00 | 0.00 | 0.00 | 58 | 1021.1 |
| 20260508114915 | 15 | 135 | 3.2 | 8.0 | 0.00 | 0.00 | 0.00 | 61 | 1021.1 |
| 20260508113915 | 15 | 158 | 3.2 | 9.7 | 0.00 | 0.00 | 0.00 | 61 | 1021.3 |
| 20260508112916 | 15 | 45 | 3.2 | 6.4 | 0.00 | 0.00 | 0.00 | 60 | 1021.3 |
| 20260508111915 | 15 | 68 | 6.4 | 11.3 | 0.00 | 0.00 | 0.00 | 58 | 1021.3 |
| 20260508110916 | 15 | 135 | 4.8 | 8.0 | 0.00 | 0.00 | 0.00 | 61 | 1021.3 |
| 20260508105915 | 15 | 135 | 6.4 | 12.9 | 0.00 | 0.00 | 0.00 | 60 | 1021.4 |
| 20260508104916 | 15 | 203 | 4.8 | 6.4 | 0.00 | 0.00 | 0.00 | 61 | 1021.5 |
| 20260508103935 | 14 | 135 | 9.7 | 16.1 | 0.00 | 0.00 | 0.00 | 60 | 1021.5 |
| 20260508102915 | 14 | 68 | 4.8 | 9.7 | 0.00 | 0.00 | 0.00 | 61 | 1021.5 |
| 20260508101915 | 13 | 135 | 6.4 | 9.7 | 0.00 | 0.00 | 0.00 | 65 | 1021.5 |
| 20260508100955 | 13 | 68 | 8.0 | 14.5 | 0.00 | 0.00 | 0.00 | 68 | 1021.5 |
| 20260508095935 | 12 | 45 | 4.8 | 8.0 | 0.00 | 0.00 | 0.00 | 70 | 1021.6 |
| 20260508094915 | 12 | 113 | 9.7 | 16.1 | 0.00 | 0.00 | 0.00 | 72 | 1021.6 |
| 20260508093915 | 13 | 90 | 8.0 | 12.9 | 0.00 | 0.00 | 0.00 | 71 | 1021.7 |
| 20260508092916 | 12 | 135 | 6.4 | 12.9 | 0.00 | 0.00 | 0.00 | 71 | 1021.7 |
| 20260508091915 | 12 | 68 | 8.0 | 12.9 | 0.00 | 0.00 | 0.00 | 71 | 1021.7 |
| 20260508090915 | 12 | 68 | 9.7 | 12.9 | 0.00 | 0.00 | 0.00 | 72 | 1021.7 |
| 20260508085916 | 12 | 68 | 4.8 | 6.4 | 0.00 | 0.00 | 0.00 | 74 | 1021.7 |
| 20260508084915 | 12 | 90 | 6.4 | 9.7 | 0.00 | 0.00 | 0.00 | 73 | 1021.8 |
| 20260508083935 | 12 | 90 | 3.2 | 8.0 | 0.00 | 0.00 | 0.00 | 74 | 1021.7 |
| 20260508082936 | 11 | 135 | 3.2 | 6.4 | 0.00 | 0.00 | 0.00 | 76 | 1021.7 |
| 20260508081915 | 11 | 90 | 6.4 | 8.0 | 0.00 | 0.00 | 0.00 | 77 | 1021.7 |
| 20260508080956 | 11 | 68 | 4.8 | 8.0 | 0.00 | 0.00 | 0.00 | 77 | 1021.6 |
| 20260508075915 | 11 | 45 | 3.2 | 6.4 | 0.00 | 0.00 | 0.00 | 79 | 1021.8 |
| 20260508074916 | 10 | 90 | 11.3 | 19.3 | 0.00 | 0.00 | 0.00 | 80 | 1021.7 |
| 20260508073915 | 10 | 68 | 6.4 | 9.7 | 0.00 | 0.00 | 0.00 | 82 | 1021.6 |
| 20260508072915 | 10 | 23 | 4.8 | 8.0 | 0.00 | 0.00 | 0.00 | 82 | 1021.7 |
| 20260508071955 | 10 | 90 | 3.2 | 8.0 | 0.00 | 0.00 | 0.00 | 83 | 1021.6 |
| 20260508070915 | 10 | 68 | 3.2 | 6.4 | 0.00 | 0.00 | 0.00 | 84 | 1021.7 |
| 20260508065956 | 9 | 135 | 4.8 | 8.0 | 0.00 | 0.00 | 0.00 | 85 | 1021.6 |
| 20260508064915 | 9 | 158 | 4.8 | 11.3 | 0.00 | 0.00 | 0.00 | 86 | 1021.5 |
| 20260508063915 | 8 | 45 | 3.2 | 4.8 | 0.00 | 0.00 | 0.00 | 88 | 1021.4 |
| 20260508062916 | 8 | 113 | 3.2 | 8.0 | 0.00 | 0.00 | 0.00 | 88 | 1021.3 |
| 20260508061915 | 7 | 68 | 1.6 | 8.0 | 0.00 | 0.00 | 0.00 | 89 | 1021.3 |
| 20260508060916 | 7 | 113 | 1.6 | 3.2 | 0.00 | 0.00 | 0.00 | 91 | 1021.2 |
| 20260508055915 | 6 | 0.0 | 1.6 | 0.00 | 0.00 | 0.00 | 92 | 1021.1 | |
| 20260508054916 | 6 | 68 | 1.6 | 3.2 | 0.00 | 0.00 | 0.00 | 93 | 1021.2 |
| 20260508053915 | 5 | 0.0 | 1.6 | 0.00 | 0.00 | 0.00 | 93 | 1021.0 | |
| 20260508052936 | 5 | 0.0 | 1.6 | 0.00 | 0.00 | 0.00 | 93 | 1021.0 | |
| 20260508051916 | 5 | 68 | 3.2 | 3.2 | 0.00 | 0.00 | 0.00 | 93 | 1020.9 |
| 20260508050916 | 4 | 0.0 | 1.6 | 0.00 | 0.00 | 0.00 | 93 | 1020.9 | |
| 20260508045936 | 4 | 68 | 3.2 | 4.8 | 0.00 | 0.00 | 0.00 | 94 | 1020.9 |
| 20260508044916 | 3 | 0.0 | 1.6 | 0.00 | 0.00 | 0.00 | 94 | 1020.8 | |
| 20260508043916 | 3 | 0.0 | 1.6 | 0.00 | 0.00 | 0.00 | 94 | 1020.7 | |
| 20260508042935 | 3 | 0.0 | 1.6 | 0.00 | 0.00 | 0.00 | 94 | 1020.7 | |
| 20260508041915 | 2 | 0.0 | 0.0 | 0.00 | 0.00 | 0.00 | 94 | 1020.6 | |
| 20260508040915 | 2 | 0.0 | 0.0 | 0.00 | 0.00 | 0.00 | 94 | 1020.5 | |
| 20260508035916 | 2 | 0.0 | 0.0 | 0.00 | 0.03 | 0.00 | 94 | 1020.4 | |
| 20260508034916 | 2 | 0.0 | 0.0 | 0.00 | 0.03 | 0.00 | 94 | 1020.5 | |
| 20260508033915 | 1 | 0.0 | 0.0 | 0.00 | 0.03 | 0.00 | 94 | 1020.4 | |
| 20260508032915 | 2 | 0.0 | 0.0 | 0.00 | 0.03 | 0.00 | 94 | 1020.4 | |
| 20260508031916 | 2 | 0.0 | 0.0 | 0.00 | 0.03 | 0.00 | 94 | 1020.4 | |
| 20260508030915 | 2 | 0.0 | 0.0 | 0.00 | 0.03 | 0.00 | 94 | 1020.5 | |
| 20260508025936 | 2 | 0.0 | 0.0 | 0.00 | 0.03 | 0.00 | 94 | 1020.4 | |
| 20260508024916 | 2 | 0.0 | 0.0 | 0.00 | 0.03 | 0.00 | 94 | 1020.4 | |
| 20260508023915 | 2 | 0.0 | 0.0 | 0.00 | 0.03 | 0.00 | 94 | 1020.5 | |
| 20260508022915 | 2 | 0.0 | 0.0 | 0.00 | 0.03 | 0.00 | 94 | 1020.5 | |
| 20260508021916 | 2 | 0.0 | 0.0 | 0.00 | 0.03 | 0.00 | 94 | 1020.5 | |
| 20260508020935 | 2 | 0.0 | 0.0 | 0.00 | 0.03 | 0.00 | 94 | 1020.4 | |
| 20260508015915 | 2 | 0.0 | 0.0 | 0.00 | 0.05 | 0.00 | 94 | 1020.4 | |
| 20260508014915 | 2 | 0.0 | 0.0 | 0.00 | 0.05 | 0.00 | 94 | 1020.4 | |
| 20260508013936 | 2 | 0.0 | 0.0 | 0.00 | 0.05 | 0.00 | 94 | 1020.3 | |
| 20260508012917 | 2 | 0.0 | 0.0 | 0.00 | 0.05 | 0.00 | 94 | 1020.3 | |
| 20260508011917 | 2 | 0.0 | 0.0 | 0.00 | 0.05 | 0.00 | 94 | 1020.3 | |
| 20260508010917 | 3 | 0.0 | 0.0 | 0.00 | 0.05 | 0.00 | 94 | 1020.2 | |
| 20260508005937 | 3 | 0.0 | 0.0 | 0.00 | 0.08 | 0.00 | 94 | 1020.2 | |
| 20260508004917 | 3 | 0.0 | 0.0 | 0.00 | 0.08 | 0.00 | 94 | 1020.2 | |
| 20260508003917 | 3 | 0.0 | 0.0 | 0.00 | 0.08 | 0.00 | 94 | 1020.2 | |
| 20260508002957 | 3 | 0.0 | 0.0 | 0.00 | 0.08 | 0.00 | 94 | 1020.2 | |
| 20260508001917 | 3 | 0.0 | 0.0 | 0.00 | 0.08 | 0.00 | 94 | 1020.2 | |
| 20260508000918 | 3 | 0.0 | 0.0 | 0.00 | 0.08 | 0.00 | 93 | 1020.2 | |
| 20260507235918 | 3 | 0.0 | 0.0 | 0.00 | 0.23 | 0.00 | 93 | 1020.2 | |
| 20260507234918 | 4 | 0.0 | 0.0 | 0.00 | 0.23 | 0.00 | 93 | 1020.2 | |
| 20260507233917 | 4 | 0.0 | 0.0 | 0.00 | 0.23 | 0.00 | 93 | 1020.3 | |
| 20260507232917 | 4 | 0.0 | 0.0 | 0.00 | 0.23 | 0.00 | 93 | 1020.2 | |
| 20260507231917 | 4 | 0.0 | 0.0 | 0.00 | 0.23 | 0.00 | 93 | 1020.3 | |
| 20260507230938 | 5 | 0.0 | 0.0 | 0.00 | 0.23 | 0.00 | 93 | 1020.2 | |
| 20260507225918 | 5 | 0.0 | 0.0 | 0.00 | 0.36 | 0.00 | 93 | 1020.3 |